GW6292 Weather Reports


Display with metric or nautical units.
time (UTC)temp
F
wind
direction
speed
MPH
gust
MPH
rain 1hr
in
rain 24hr
in
rain mn
in
humidity
%
barometer
mb
20260901003513 0 0.0 0.0 0.00 0.00 0.00 1018.3
20260901003011 0 0.0 0.0 0.00 0.00 0.00 1018.3
20260901002511 0 0.0 0.0 0.00 0.00 0.00 1018.4
20260901002006 0 0.0 0.0 0.00 0.00 0.00 1018.3
20260901001502 76 85 0.0 0.0 0.00 0.00 0.00 90 1018.3
20260901000957 76 85 0.0 0.0 0.00 0.00 0.00 90 1018.1
20260901000458 77 85 0.0 0.0 0.00 0.00 0.00 88 1018.3
20260831235955 77 85 0.0 0.0 0.00 0.00 0.00 88 1018.4
20260831235451 77 85 0.0 0.0 0.00 0.00 0.00 88 1018.4
20260831234947 77 85 0.0 0.0 0.00 0.00 0.00 88 1018.3
20260831234441 77 85 0.0 0.0 0.00 0.00 0.00 87 1018.0
20260831233936 77 85 0.0 0.0 0.00 0.00 0.00 87 1018.2
20260831233431 78 85 0.0 0.0 0.00 0.00 0.00 86 1018.1
20260831232927 78 85 0.0 0.0 0.00 0.00 0.00 85 1018.0
20260831232423 0 0.0 0.0 0.00 0.00 0.00 1018.3
20260831231918 0 0.0 0.0 0.00 0.00 0.00 1018.1
20260831231415 79 85 0.0 0.0 0.00 0.00 0.00 84 1018.0
20260831230910 79 85 0.0 0.0 0.00 0.00 0.00 84 1018.3
20260831230405 79 85 0.0 0.0 0.00 0.00 0.00 85 1018.2
20260831225859 79 85 0.0 0.0 0.00 0.00 0.00 85 1018.3
20260831225355 0 0.0 0.0 0.00 0.00 0.00 1018.4
20260831224849 79 85 0.0 0.0 0.00 0.00 0.00 83 1018.4
20260831224344 79 85 0.0 0.0 0.00 0.00 0.00 83 1018.3
20260831223839 80 85 0.0 0.0 0.00 0.00 0.00 82 1018.6
20260831223335 80 85 0.0 0.0 0.00 0.00 0.00 82 1018.6
20260831222832 80 85 0.0 0.0 0.00 0.00 0.00 82 1018.7
20260831222327 0 0.0 0.0 0.00 0.00 0.00 1018.8
20260831221827 80 85 0.0 1.0 0.00 0.00 0.00 81 1018.9
20260831221323 80 85 0.0 1.0 0.00 0.00 0.00 81 1018.8
20260831220818 80 85 0.0 0.0 0.00 0.00 0.00 81 1018.8
20260831220313 0 0.0 0.0 0.00 0.00 0.00 1019.0
20260831215808 0 0.0 0.0 0.00 0.00 0.00 1018.9
20260831215306 81 85 0.0 0.0 0.00 0.00 0.00 81 1018.7
20260831214800 81 85 0.0 0.0 0.00 0.00 0.00 81 1018.9
20260831214257 81 85 0.0 0.0 0.00 0.00 0.00 79 1019.0
20260831213753 81 85 0.0 0.0 0.00 0.00 0.00 79 1018.8
20260831213249 81 85 0.0 0.0 0.00 0.00 0.00 79 1018.8
20260831212743 82 85 0.0 0.0 0.00 0.00 0.00 78 1019.0
20260831212240 82 85 0.0 0.0 0.00 0.00 0.00 79 1018.7
20260831211738 82 85 0.0 0.0 0.00 0.00 0.00 78 1018.8
20260831211234 82 85 0.0 0.0 0.00 0.00 0.00 77 1018.7
20260831210734 82 85 0.0 0.0 0.00 0.00 0.00 76 1018.6
20260831210231 82 85 0.0 0.0 0.00 0.00 0.00 76 1018.7
20260831205730 83 85 0.0 0.0 0.00 0.00 0.00 76 1018.9
20260831205227 83 85 0.0 0.0 0.00 0.00 0.00 73 1018.8
20260831204726 84 85 0.0 0.0 0.00 0.00 0.00 75 1019.0
20260831204226 85 85 0.0 0.0 0.00 0.00 0.00 70 1018.7
20260831203725 85 85 0.0 0.0 0.00 0.00 0.00 72 1018.9
20260831203224 85 84 0.0 1.0 0.00 0.00 0.00 67 1018.9
20260831202723 84 85 0.0 0.0 0.00 0.00 0.00 69 1018.9
20260831202218 85 85 1.0 1.0 0.00 0.00 0.00 71 1018.8
20260831201713 86 85 0.0 0.0 0.00 0.00 0.00 69 1019.0
20260831201212 86 85 0.0 0.0 0.00 0.00 0.00 64 1018.9
20260831200708 86 84 1.0 1.0 0.00 0.00 0.00 65 1019.1
20260831200208 0 0.0 0.0 0.00 0.00 0.00 1019.0
20260831195703 0 0.0 0.0 0.00 0.00 0.00 1019.0
20260831195159 0 0.0 0.0 0.00 0.00 0.00 1019.1
20260831194653 0 0.0 0.0 0.00 0.00 0.00 1019.0
20260831194150 0 0.0 0.0 0.00 0.00 0.00 1019.1
20260831193649 0 0.0 0.0 0.00 0.00 0.00 1019.0
20260831193145 0 0.0 0.0 0.00 0.00 0.00 1019.1
20260831192640 0 0.0 0.0 0.00 0.00 0.00 1019.2
20260831192135 0 0.0 0.0 0.00 0.00 0.00 1019.4
20260831191631 0 0.0 0.0 0.00 0.00 0.00 1019.2
20260831191126 0 0.0 0.0 0.00 0.00 0.00 1019.5
20260831190621 0 0.0 0.0 0.00 0.00 0.00 1019.5
20260831190120 0 0.0 0.0 0.00 0.00 0.00 1019.5
20260831185616 85 85 0.0 0.0 0.00 0.00 0.00 68 1019.6
20260831185113 85 85 0.0 0.0 0.00 0.00 0.00 68 1019.6
20260831184612 85 85 0.0 1.0 0.00 0.00 0.00 69 1019.5
20260831184108 85 85 0.0 0.0 0.00 0.00 0.00 67 1019.8
20260831183607 0 0.0 0.0 0.00 0.00 0.00 1019.7
20260831183106 0 0.0 0.0 0.00 0.00 0.00 1019.5
20260831182605 84 85 1.0 2.0 0.00 0.00 0.00 67 1019.6
20260831182101 84 85 1.0 2.0 0.00 0.00 0.00 67 1019.8
20260831181601 84 85 0.0 0.0 0.00 0.00 0.00 68 1019.7
20260831181056 83 84 2.0 2.0 0.00 0.00 0.00 68 1019.6
20260831180551 83 84 1.0 1.0 0.00 0.00 0.00 69 1019.7
20260831180046 83 85 2.0 2.0 0.00 0.00 0.00 72 1019.7
20260831175541 0 0.0 0.0 0.00 0.00 0.00 1019.5
20260831175038 0 0.0 0.0 0.00 0.00 0.00 1019.5
20260831174538 0 0.0 0.0 0.00 0.00 0.00 1019.6
20260831174038 83 85 1.0 1.0 0.00 0.00 0.00 72 1019.8
20260831173536 83 85 1.0 1.0 0.00 0.00 0.00 72 1019.9
20260831173033 0 0.0 0.0 0.00 0.00 0.00 1020.0
20260831172528 0 0.0 0.0 0.00 0.00 0.00 1019.7
20260831172022 0 0.0 0.0 0.00 0.00 0.00 1019.8
20260831171518 0 0.0 0.0 0.00 0.00 0.00 1020.0
20260831171015 0 0.0 0.0 0.00 0.00 0.00 1020.0
20260831170511 0 0.0 0.0 0.00 0.00 0.00 1020.0
20260831170009 0 0.0 0.0 0.00 0.00 0.00 1020.1
20260831165508 0 0.0 0.0 0.00 0.00 0.00 1020.2
20260831165006 0 0.0 0.0 0.00 0.00 0.00 1019.8
20260831164501 84 84 0.0 0.0 0.00 0.00 0.00 70 1020.0
20260831163956 84 84 0.0 0.0 0.00 0.00 0.00 70 1020.2
20260831163451 0 0.0 0.0 0.00 0.00 0.00 1020.4
20260831162950 0 0.0 0.0 0.00 0.00 0.00 1020.4
20260831162445 82 84 1.0 1.0 0.00 0.00 0.00 69 1020.4
20260831161943 82 84 1.0 1.0 0.00 0.00 0.00 69 1020.4
20260831161435 82 84 2.0 2.0 0.00 0.00 0.00 72 1020.5
20260831160931 81 84 2.0 2.0 0.00 0.00 0.00 74 1020.6
20260831160430 81 84 0.0 1.0 0.00 0.00 0.00 73 1020.7
20260831155925 81 84 1.0 1.0 0.00 0.00 0.00 74 1020.6
20260831155424 81 84 1.0 1.0 0.00 0.00 0.00 76 1020.5
20260831154920 80 85 2.0 2.0 0.00 0.00 0.00 75 1020.6
20260831154416 80 85 2.0 2.0 0.00 0.00 0.00 75 1020.5
20260831153914 80 85 2.0 2.0 0.00 0.00 0.00 75 1020.2
20260831153411 80 85 2.0 2.0 0.00 0.00 0.00 75 1020.4
20260831152907 0 0.0 0.0 0.00 0.00 0.00 1020.2
20260831152402 81 85 2.0 2.0 0.00 0.00 0.00 73 1020.4
20260831151857 81 85 2.0 2.0 0.00 0.00 0.00 73 1020.5
20260831151356 0 0.0 0.0 0.00 0.00 0.00 1020.2
20260831150851 0 0.0 0.0 0.00 0.00 0.00 1020.4
20260831150347 0 0.0 0.0 0.00 0.00 0.00 1020.2
20260831145846 0 0.0 0.0 0.00 0.00 0.00 1020.4
20260831145343 0 0.0 0.0 0.00 0.00 0.00 1020.4
20260831144838 0 0.0 0.0 0.00 0.00 0.00 1020.2
20260831144334 80 84 0.0 1.0 0.00 0.00 0.00 76 1020.2
20260831143834 80 84 0.0 1.0 0.00 0.00 0.00 76 1020.4
20260831143329 80 84 2.0 2.0 0.00 0.00 0.00 75 1020.4
20260831142825 80 84 2.0 2.0 0.00 0.00 0.00 75 1020.5
20260831142320 79 84 1.0 1.0 0.00 0.00 0.00 79 1020.5
20260831141820 0 0.0 0.0 0.00 0.00 0.00 1020.2
20260831141315 0 0.0 0.0 0.00 0.00 0.00 1020.4
20260831140810 0 0.0 0.0 0.00 0.00 0.00 1020.1
20260831140310 78 85 3.0 3.0 0.00 0.00 0.00 83 1020.2
20260831135808 78 85 3.0 3.0 0.00 0.00 0.00 83 1020.4
20260831135306 78 85 2.0 2.0 0.00 0.00 0.00 84 1020.1
20260831134759 0 0.0 0.0 0.00 0.00 0.00 1020.2
20260831134255 0 0.0 0.0 0.00 0.00 0.00 1020.0
20260831133754 0 0.0 0.0 0.00 0.00 0.00 1020.2
20260831133254 0 0.0 0.0 0.00 0.00 0.00 1020.2
20260831132749 76 85 0.0 1.0 0.00 0.00 0.00 88 1020.4
20260831132244 76 85 0.0 1.0 0.00 0.00 0.00 88 1020.4
20260831131744 76 85 1.0 1.0 0.00 0.00 0.00 88 1020.4
20260831131241 76 85 0.0 0.0 0.00 0.00 0.00 88 1020.5
20260831130735 0 0.0 0.0 0.00 0.00 0.00 1020.4
20260831130231 75 85 1.0 1.0 0.00 0.00 0.00 90 1020.5
20260831125729 75 85 1.0 1.0 0.00 0.00 0.00 90 1020.2
20260831125226 0 0.0 0.0 0.00 0.00 0.00 1020.4
20260831124726 0 0.0 0.0 0.00 0.00 0.00 1020.4
20260831124222 0 0.0 0.0 0.00 0.00 0.00 1020.1
20260831123722 0 0.0 0.0 0.00 0.00 0.00 1020.1
20260831123222 0 0.0 0.0 0.00 0.00 0.00 1020.1
20260831122721 0 0.0 0.0 0.00 0.00 0.00 1020.1
20260831122217 0 0.0 0.0 0.00 0.00 0.00 1020.2
20260831121716 0 0.0 0.0 0.00 0.00 0.00 1020.0
20260831121213 0 0.0 0.0 0.00 0.00 0.00 1020.0
20260831120708 0 0.0 0.0 0.00 0.00 0.00 1020.1
20260831120203 0 0.0 0.0 0.00 0.00 0.00 1020.0
20260831115658 0 0.0 0.0 0.00 0.00 0.00 1020.1
20260831115154 0 0.0 0.0 0.00 0.00 0.00 1019.9
20260831114653 0 0.0 0.0 0.00 0.00 0.00 1019.9
20260831114148 0 0.0 0.0 0.00 0.00 0.00 1019.8
20260831113648 0 0.0 0.0 0.00 0.00 0.00 1019.9
20260831113143 0 0.0 0.0 0.00 0.00 0.00 1019.8
20260831112642 0 0.0 0.0 0.00 0.00 0.00 1019.8
20260831112137 0 0.0 0.0 0.00 0.00 0.00 1019.9
20260831111633 0 0.0 0.0 0.00 0.00 0.00 1019.8
20260831111129 0 0.0 0.0 0.00 0.00 0.00 1019.7
20260831110624 0 0.0 0.0 0.00 0.00 0.00 1019.6
20260831110120 0 0.0 0.0 0.00 0.00 0.00 1019.5
20260831105619 0 0.0 0.0 0.00 0.00 0.00 1019.5
20260831105114 0 0.0 0.0 0.00 0.00 0.00 1019.4
20260831104610 0 0.0 0.0 0.00 0.00 0.00 1019.3
20260831104106 0 0.0 0.0 0.00 0.00 0.00 1019.2
20260831103601 0 0.0 0.0 0.00 0.00 0.00 1018.9
20260831103057 0 0.0 0.0 0.00 0.00 0.00 1019.1
20260831102556 0 0.0 0.0 0.00 0.00 0.00 1019.0
20260831102052 0 0.0 0.0 0.00 0.00 0.00 1019.0
20260831101552 0 0.0 0.0 0.00 0.00 0.00 1018.9
20260831101048 0 0.0 0.0 0.00 0.00 0.00 1018.9
20260831100548 0 0.0 0.0 0.00 0.00 0.00 1018.8
20260831100045 0 0.0 0.0 0.00 0.00 0.00 1018.7
20260831095543 0 0.0 0.0 0.00 0.00 0.00 1018.7
20260831095038 0 0.0 0.0 0.00 0.00 0.00 1018.9
20260831094534 0 0.0 0.0 0.00 0.00 0.00 1018.7
20260831094030 0 0.0 0.0 0.00 0.00 0.00 1018.7
20260831093525 0 0.0 0.0 0.00 0.00 0.00 1018.7
20260831093021 0 0.0 0.0 0.00 0.00 0.00 1018.7
20260831092517 0 0.0 0.0 0.00 0.00 0.00 1018.8
20260831092012 0 0.0 0.0 0.00 0.00 0.00 1018.6
20260831091507 0 0.0 0.0 0.00 0.00 0.00 1018.7
20260831091002 0 0.0 0.0 0.00 0.00 0.00 1018.5
20260831090458 0 0.0 0.0 0.00 0.00 0.00 1018.6
20260831085954 0 0.0 0.0 0.00 0.00 0.00 1018.7
20260831085449 0 0.0 0.0 0.00 0.00 0.00 1018.6
20260831084949 0 0.0 0.0 0.00 0.00 0.00 1018.7
20260831084445 0 0.0 0.0 0.00 0.00 0.00 1018.8
20260831083942 0 0.0 0.0 0.00 0.00 0.00 1018.8
20260831083436 0 0.0 0.0 0.00 0.00 0.00 1018.7
20260831082935 0 0.0 0.0 0.00 0.00 0.00 1018.8
20260831082435 0 0.0 0.0 0.00 0.00 0.00 1018.7
20260831081930 0 0.0 0.0 0.00 0.00 0.00 1018.5
20260831081426 0 0.0 0.0 0.00 0.00 0.00 1018.7
20260831080922 0 0.0 0.0 0.00 0.00 0.00 1018.8
20260831080417 69 85 0.0 0.0 0.00 0.00 0.00 96 1018.8
20260831075913 69 85 0.0 0.0 0.00 0.00 0.00 96 1018.7
20260831075408 0 0.0 0.0 0.00 0.00 0.00 1018.6
20260831074903 0 0.0 0.0 0.00 0.00 0.00 1018.7
20260831074402 69 85 0.0 0.0 0.00 0.00 0.00 97 1018.6
20260831073857 69 85 0.0 0.0 0.00 0.00 0.00 97 1018.9
20260831073356 0 0.0 0.0 0.00 0.00 0.00 1018.8
20260831072851 0 0.0 0.0 0.00 0.00 0.00 1018.8
20260831072347 0 0.0 0.0 0.00 0.00 0.00 1018.8
20260831071843 69 85 0.0 0.0 0.00 0.00 0.00 96 1018.6
20260831071342 69 85 0.0 0.0 0.00 0.00 0.00 96 1018.8
20260831070837 0 0.0 0.0 0.00 0.00 0.00 1018.8
20260831070336 0 0.0 0.0 0.00 0.00 0.00 1018.5
20260831065836 0 0.0 0.0 0.00 0.00 0.00 1018.6
20260831065333 69 85 0.0 0.0 0.00 0.00 0.00 96 1018.5
20260831064829 69 85 0.0 0.0 0.00 0.00 0.00 96 1018.6
20260831064324 0 0.0 0.0 0.00 0.00 0.00 1018.6
20260831063820 0 0.0 0.0 0.00 0.00 0.00 1018.6
20260831063315 0 0.0 0.0 0.00 0.00 0.00 1018.6
20260831062815 0 0.0 0.0 0.00 0.00 0.00 1018.7
20260831062310 0 0.0 0.0 0.00 0.00 0.00 1018.9
20260831061809 69 85 0.0 0.0 0.00 0.00 0.00 96 1018.9
20260831061308 69 85 0.0 0.0 0.00 0.00 0.00 96 1018.8
20260831060805 0 0.0 0.0 0.00 0.00 0.00 1018.9
20260831060304 0 0.0 0.0 0.00 0.00 0.00 1018.9
20260831055804 0 0.0 0.0 0.00 0.00 0.00 1019.1
20260831055259 0 0.0 0.0 0.00 0.00 0.00 1019.0
20260831054754 0 0.0 0.0 0.00 0.00 0.00 1019.3
20260831054249 0 0.0 0.0 0.00 0.00 0.00 1019.3
20260831053748 70 85 0.0 0.0 0.00 0.00 0.00 95 1019.1
20260831053246 70 85 0.0 0.0 0.00 0.00 0.00 95 1019.3
20260831052741 70 85 0.0 0.0 0.00 0.00 0.00 95 1019.1
20260831052240 70 85 0.0 0.0 0.00 0.00 0.00 95 1019.1
20260831051738 0 0.0 0.0 0.00 0.00 0.00 1019.1
20260831051237 70 85 0.0 0.0 0.00 0.00 0.00 95 1019.2
20260831050732 70 85 0.0 0.0 0.00 0.00 0.00 95 1018.9
20260831050231 0 0.0 0.0 0.00 0.00 0.00 1019.2
20260831045726 0 0.0 0.0 0.00 0.00 0.00 1019.1
20260831045226 0 0.0 0.0 0.00 0.00 0.00 1019.2
20260831044721 70 85 0.0 0.0 0.00 0.00 0.00 95 1019.0
20260831044216 70 85 0.0 0.0 0.00 0.00 0.00 95 1019.0
20260831043713 0 0.0 0.0 0.00 0.00 0.00 1019.3
20260831043207 71 85 0.0 0.0 0.00 0.00 0.00 94 1019.1
20260831042706 71 85 0.0 0.0 0.00 0.00 0.00 94 1019.1
20260831042202 71 85 0.0 0.0 0.00 0.00 0.00 94 1019.2
20260831041656 71 85 0.0 0.0 0.00 0.00 0.00 94 1019.1
20260831041155 71 85 0.0 0.0 0.00 0.00 0.00 94 1019.2
20260831040651 71 85 0.0 0.0 0.00 0.00 0.00 94 1019.3
20260831040149 71 85 0.0 0.0 0.00 0.00 0.00 94 1019.5
20260831035649 71 85 0.0 0.0 0.00 0.00 0.00 94 1019.4
20260831035150 71 85 0.0 0.0 0.00 0.00 0.00 94 1019.3
20260831034648 71 85 0.0 0.0 0.00 0.00 0.00 94 1019.3
20260831034144 71 85 0.0 0.0 0.00 0.00 0.00 94 1019.3
20260831033640 71 85 0.0 0.0 0.00 0.00 0.00 93 1019.3
20260831033134 71 85 0.0 0.0 0.00 0.00 0.00 93 1019.3
20260831032628 71 85 0.0 0.0 0.00 0.00 0.00 93 1019.3
20260831032124 71 85 0.0 0.0 0.00 0.00 0.00 93 1019.2
20260831031624 71 85 0.0 0.0 0.00 0.00 0.00 93 1019.2
20260831031123 71 85 0.0 0.0 0.00 0.00 0.00 93 1019.3
20260831030622 71 85 0.0 0.0 0.00 0.00 0.00 93 1019.4
20260831030121 71 85 0.0 0.0 0.00 0.00 0.00 93 1019.3
20260831025620 71 85 0.0 0.0 0.00 0.00 0.00 93 1019.4
20260831025115 71 85 0.0 0.0 0.00 0.00 0.00 93 1019.4
20260831024612 71 85 0.0 0.0 0.00 0.00 0.00 93 1019.4
20260831024110 71 85 0.0 0.0 0.00 0.00 0.00 93 1019.7
20260831023608 71 85 0.0 0.0 0.00 0.00 0.00 93 1019.5
20260831023103 71 85 0.0 0.0 0.00 0.00 0.00 93 1019.7
20260831022602 71 85 0.0 0.0 0.00 0.00 0.00 93 1019.8
20260831022058 71 85 0.0 0.0 0.00 0.00 0.00 93 1019.9
20260831021556 71 85 0.0 0.0 0.00 0.00 0.00 93 1019.9
20260831021053 72 85 0.0 0.0 0.00 0.00 0.00 92 1020.1
20260831020548 72 85 0.0 0.0 0.00 0.00 0.00 92 1019.9
20260831020042 72 85 0.0 0.0 0.00 0.00 0.00 92 1019.8
20260831015538 72 85 0.0 0.0 0.00 0.00 0.00 91 1020.0
20260831015033 72 85 0.0 0.0 0.00 0.00 0.00 91 1019.8
20260831014528 73 85 0.0 0.0 0.00 0.00 0.00 90 1019.7
20260831014024 73 85 0.0 0.0 0.00 0.00 0.00 90 1019.5
20260831013520 73 85 0.0 0.0 0.00 0.00 0.00 89 1019.6
20260831013019 73 85 0.0 0.0 0.00 0.00 0.00 88 1019.9
20260831012514 73 85 0.0 0.0 0.00 0.00 0.00 88 1019.8
20260831012014 74 85 0.0 0.0 0.00 0.00 0.00 87 1019.8
20260831011509 74 85 0.0 0.0 0.00 0.00 0.00 87 1019.6
20260831011005 74 85 0.0 0.0 0.00 0.00 0.00 86 1019.5
20260831010504 74 85 0.0 0.0 0.00 0.00 0.00 86 1019.6
20260831010000 75 85 0.0 1.0 0.00 0.00 0.00 86 1019.5
20260831005456 75 85 0.0 0.0 0.00 0.00 0.00 85 1019.6
20260831004955 75 85 0.0 0.0 0.00 0.00 0.00 85 1019.7
20260831004453 75 85 0.0 0.0 0.00 0.00 0.00 85 1019.4
20260831003948 76 85 2.0 2.0 0.00 0.00 0.00 84 1019.2